This demonstration page uses our WeatherBlox Daily Observations layout. Learn more.

Left ArrowRight Arrow

Hourly Observations for July 15, 2016

Temp ( °F °C ) Dew Point ( °F °C ) Humidity (%) Winds ( mph kmh ) Pressure ( in mb ) Visibility ( mi km ) Precip ( " mm )
12:51 am 00:51 Clear 85 29.4 41 5 21 21 NW 12 19 29.76 1008 10 16 0.00 0.00
1:51 am 01:51 Clear 81 27.2 39 3.9 22 22 WNW 8 13 29.76 1008 10 16 0.00 0.00
2:51 am 02:51 Clear 80 26.7 38 3.3 22 22 NW 10 17 29.76 1008 10 16 0.00 0.00
3:51 am 03:51 Clear 80 26.7 38 3.3 22 22 NW 10 17 29.77 1008 10 16 0.00 0.00
4:51 am 04:51 Clear 77 25 39 3.9 26 26 NW 9 15 29.79 1009 10 16 0.00 0.00
5:51 am 05:51 Sunny 72 22.2 41 5 33 33 SSE 5 7 29.82 1010 10 16 0.00 0.00
6:51 am 06:51 Sunny 83 28.3 42 5.6 24 24 SW 5 7 29.81 1010 10 16 0.00 0.00
7:51 am 07:51 Sunny 92 33.3 41 5 17 17 WNW 13 20 29.82 1010 10 16 0.00 0.00
8:51 am 08:51 Sunny 95 35 42 5.6 16 16 WNW 16 26 29.81 1010 10 16 0.00 0.00
9:51 am 09:51 Sunny 98 36.7 45 7.2 16 16 WNW 22 35 29.81 1009 10 16 0.00 0.00
10:51 am 10:51 Sunny 100 37.8 42 5.6 14 14 WNW 16 26 29.80 1009 10 16 0.00 0.00
11:51 am 11:51 Sunny 103 39.4 41 5 12 12 W 23 37 29.77 1008 10 16 0.00 0.00
12:51 pm 12:51 Sunny 106 41.1 40 4.4 10 10 WNW 21 33 29.74 1007 10 16 0.00 0.00
1:51 pm 13:51 Sunny 106 41.1 39 3.9 10 10 WNW 20 31 29.72 1006 10 16 0.00 0.00
2:51 pm 14:51 Sunny 108 42.2 39 3.9 9 9 NW 16 26 29.70 1006 10 16 0.00 0.00
3:51 pm 15:51 Sunny 108 42.2 41 5 10 10 W 21 33 29.67 1005 10 16 0.00 0.00
4:51 pm 16:51 Sunny 106 41.1 41 5 11 11 W 16 26 29.65 1004 10 16 0.00 0.00
5:51 pm 17:51 Sunny 104 40 41 5 12 12 NW 20 31 29.65 1004 10 16 0.00 0.00
6:51 pm 18:51 Sunny 101 38.3 43 6.1 14 14 WNW 20 31 29.65 1004 10 16 0.00 0.00
7:51 pm 19:51 Clear 96 35.6 45 7.2 17 17 WNW 13 20 29.66 1005 10 16 0.00 0.00
8:51 pm 20:51 Clear 92 33.3 45 7.2 20 20 NW 9 15 29.68 1005 10 16 0.00 0.00
9:51 pm 21:51 Clear 91 32.8 44 6.7 20 20 NW 10 17 29.71 1006 10 16 0.00 0.00
10:51 pm 22:51 Clear 88 31.1 45 7.2 22 22 NNW 10 17 29.72 1007 10 16 0.00 0.00
11:51 pm 23:51 Clear 85 29.4 45 7.2 25 25 NW 7 11 29.72 1007 10 16 0.00 0.00

Powered by AerisWeather